Weather History for KOPM - January, 2013

Change the Weather History Date:

Tuesday, January 22, 2013

  Actual Average Record
Temperature  
Mean Temperature 67 °F -  
Max Temperature 68 °F - - ()
Min Temperature 66 °F - - ()
Cooling Degree Days 2    
Growing Degree Days 17 (Base 50)    
Moisture  
Dew Point 56 °F    
Average Humidity 69    
Maximum Humidity 83    
Minimum Humidity 60    
Precipitation  
Precipitation 0.00 in - - ()
Sea Level Pressure  
Sea Level Pressure 30.22 in    
Wind  
Wind Speed 13 mph (ENE)    
Max Wind Speed 16 mph    
Max Gust Speed -    
Visibility 10 miles    
Events      
T = Trace of Precipitation, MM = Missing Value Source: NWS Daily Summary

Daily Weather History Graph

Daily Weather History Graph

Search for Another Location

Airport or City:

Trip Planner

Search our weather history database for the weather conditions in past years. The results will help you decide how hot, cold, wet, or windy it might be!

Date:

Astronomy

Jan. 22, 2013 Rise Set
Actual Time 7:16 AM CST 6:02 PM CST
Civil Twilight 6:52 AM CST 6:27 PM CST
Nautical Twilight 6:23 AM CST 6:55 PM CST
Astronomical Twilight 5:56 AM CST 7:23 PM CST
Moon 2:30 PM CST (1/22) 3:36 AM CST (1/22)
Length of Visible Light 11h 34m
Length of Day
10h 45m
Waxing Gibbous, 83% of the Moon is Illuminated
Jan 22
Waxing Gibbous
Jan 26
Full
Feb 3
Last Quarter
Feb 10
New
Feb 17
First Quarter

Hourly Weather History & Observations

Time (CST) Temp. Dew Point Humidity Pressure Visibility Wind Dir Wind Speed Gust Speed Precip Events Conditions
12:15 AM 66.2 °F 55.4 °F 68% 30.18 in 10.0 mi ENE 12.7 mph - N/A   Clear
12:35 AM 66.2 °F 55.4 °F 68% 30.18 in 10.0 mi ENE 12.7 mph - N/A   Clear
12:55 AM 66.2 °F 55.4 °F 68% 30.18 in 10.0 mi ENE 12.7 mph - N/A   Clear
1:15 AM 66.2 °F 55.4 °F 68% 30.17 in 10.0 mi ENE 15.0 mph - N/A   Clear
1:35 AM 66.2 °F 55.4 °F 68% 30.16 in 10.0 mi ENE 15.0 mph - N/A   Clear
1:55 AM 66.2 °F 55.4 °F 68% 30.16 in 10.0 mi ENE 15.0 mph - N/A   Clear
2:15 AM 66.2 °F 55.4 °F 68% 30.17 in 10.0 mi ENE 13.8 mph - N/A   Clear
2:35 AM 66.2 °F 55.4 °F 68% 30.17 in 10.0 mi ENE 12.7 mph - N/A   Clear
2:55 AM 66.2 °F 55.4 °F 68% 30.17 in 10.0 mi ENE 15.0 mph - N/A   Clear
3:15 AM 66.2 °F 55.4 °F 68% 30.17 in 10.0 mi East 12.7 mph - N/A   Clear
3:35 AM 66.2 °F 55.4 °F 68% 30.17 in 10.0 mi East 12.7 mph - N/A   Clear
3:55 AM 66.2 °F 55.4 °F 68% 30.18 in 10.0 mi East 12.7 mph - N/A   Clear
4:15 AM 66.2 °F 55.4 °F 68% 30.18 in 10.0 mi ENE 13.8 mph - N/A   Clear
4:35 AM 66.2 °F 55.4 °F 68% 30.18 in 10.0 mi ENE 11.5 mph - N/A   Clear
4:55 AM 66.2 °F 55.4 °F 68% 30.18 in 10.0 mi ENE 12.7 mph - N/A   Clear
5:15 AM 66.2 °F 55.4 °F 68% 30.19 in 10.0 mi ENE 11.5 mph - N/A   Clear
5:35 AM 66.2 °F 53.6 °F 64% 30.19 in 10.0 mi ENE 10.4 mph - N/A   Clear
5:55 AM 66.2 °F 53.6 °F 64% 30.20 in 10.0 mi ENE 11.5 mph - N/A   Clear
6:15 AM 66.2 °F 53.6 °F 64% 30.21 in 10.0 mi ENE 10.4 mph - N/A   Clear
6:35 AM 66.2 °F 55.4 °F 68% 30.22 in 10.0 mi ENE 9.2 mph - N/A   Clear
6:55 AM 66.2 °F 53.6 °F 64% 30.22 in 10.0 mi ENE 10.4 mph - N/A   Clear
7:15 AM 66.2 °F 53.6 °F 64% 30.23 in 10.0 mi ENE 10.4 mph - N/A   Clear
7:35 AM 66.2 °F 53.6 °F 64% 30.24 in 10.0 mi ENE 11.5 mph - N/A   Clear
7:55 AM 66.2 °F 53.6 °F 64% 30.24 in 10.0 mi ENE 11.5 mph - N/A   Clear
8:15 AM 66.2 °F 53.6 °F 64% 30.25 in 10.0 mi ENE 12.7 mph - N/A   Clear
8:35 AM 66.2 °F 53.6 °F 64% 30.25 in 10.0 mi ENE 12.7 mph - N/A   Clear
8:55 AM 66.2 °F 53.6 °F 64% 30.26 in 10.0 mi ENE 12.7 mph - N/A   Clear
9:15 AM 66.2 °F 53.6 °F 64% 30.26 in 10.0 mi ENE 11.5 mph - N/A   Clear
9:35 AM 66.2 °F 53.6 °F 64% 30.27 in 10.0 mi ENE 10.4 mph - N/A   Clear
9:55 AM 66.2 °F 53.6 °F 64% 30.28 in 10.0 mi ENE 11.5 mph - N/A   Clear
10:15 AM 68.0 °F 53.6 °F 60% 30.28 in 10.0 mi NE 11.5 mph - N/A   Clear
10:35 AM 68.0 °F 53.6 °F 60% 30.29 in 10.0 mi NE 11.5 mph - N/A   Clear
10:55 AM 68.0 °F 53.6 °F 60% 30.28 in 10.0 mi NE 12.7 mph - N/A   Clear
11:15 AM 68.0 °F 53.6 °F 60% 30.28 in 10.0 mi NE 13.8 mph - N/A   Clear
11:55 AM 66.2 °F 53.6 °F 64% 30.26 in 10.0 mi ENE 12.7 mph - N/A   Clear
12:15 PM 66.2 °F 55.4 °F 68% 30.26 in 10.0 mi NE 12.7 mph - N/A   Clear
12:35 PM 66.2 °F 55.4 °F 68% 30.25 in 10.0 mi ENE 12.7 mph - N/A   Clear
12:55 PM 68.0 °F 55.4 °F 64% 30.24 in 10.0 mi ENE 12.7 mph - N/A   Clear
1:15 PM 68.0 °F 55.4 °F 64% 30.23 in 10.0 mi ENE 12.7 mph - N/A   Clear
1:35 PM 66.2 °F 55.4 °F 68% 30.22 in 10.0 mi NE 13.8 mph - N/A   Clear
1:55 PM 66.2 °F 55.4 °F 68% 30.21 in 10.0 mi NE 13.8 mph - N/A   Clear
2:15 PM 66.2 °F 55.4 °F 68% 30.21 in 10.0 mi NE 15.0 mph - N/A   Clear
2:35 PM 66.2 °F 55.4 °F 68% 30.21 in 10.0 mi ENE 13.8 mph - N/A   Clear
2:55 PM 66.2 °F 55.4 °F 68% 30.20 in 10.0 mi NE 12.7 mph - N/A   Clear
3:15 PM 66.2 °F 55.4 °F 68% 30.20 in 10.0 mi ENE 11.5 mph - N/A   Clear
3:35 PM 68.0 °F 55.4 °F 64% 30.20 in 10.0 mi ENE 12.7 mph - N/A   Clear
3:55 PM 66.2 °F 55.4 °F 68% 30.20 in 10.0 mi NE 13.8 mph - N/A   Clear
4:15 PM 66.2 °F 57.2 °F 73% 30.20 in 10.0 mi NE 12.7 mph - N/A   Clear
4:35 PM 66.2 °F 57.2 °F 73% 30.21 in 10.0 mi ENE 10.4 mph - N/A   Clear
4:55 PM 66.2 °F 57.2 °F 73% 30.21 in 10.0 mi ENE 11.5 mph - N/A   Clear
5:15 PM 66.2 °F 57.2 °F 73% 30.21 in 10.0 mi ENE 12.7 mph - N/A   Clear
5:35 PM 66.2 °F 57.2 °F 73% 30.21 in 10.0 mi ENE 12.7 mph - N/A   Clear
5:55 PM 66.2 °F 57.2 °F 73% 30.20 in 10.0 mi ENE 13.8 mph - N/A   Clear
6:15 PM 66.2 °F 57.2 °F 73% 30.20 in 10.0 mi ENE 15.0 mph - N/A   Clear
6:35 PM 66.2 °F 57.2 °F 73% 30.20 in 10.0 mi ENE 15.0 mph - N/A   Clear
6:55 PM 66.2 °F 57.2 °F 73% 30.20 in 10.0 mi ENE 15.0 mph - N/A   Clear
7:15 PM 66.2 °F 57.2 °F 73% 30.21 in 10.0 mi ENE 16.1 mph - N/A   Clear
7:35 PM 66.2 °F 57.2 °F 73% 30.21 in 10.0 mi ENE 16.1 mph - N/A   Partly Cloudy
7:55 PM 66.2 °F 59.0 °F 78% 30.22 in 10.0 mi ENE 13.8 mph - N/A   Scattered Clouds
9:35 PM 66.2 °F 59.0 °F 78% 30.25 in 10.0 mi East 8.1 mph - N/A   Clear
9:55 PM 66.2 °F 59.0 °F 78% 30.25 in 10.0 mi East 9.2 mph - N/A   Scattered Clouds
10:15 PM 66.2 °F 59.0 °F 78% 30.25 in 10.0 mi East 9.2 mph - N/A   Scattered Clouds
10:35 PM 66.2 °F 59.0 °F 78% 30.25 in 10.0 mi East 9.2 mph - N/A   Clear
10:55 PM 66.2 °F 60.8 °F 83% 30.25 in 10.0 mi ESE 11.5 mph - N/A   Clear
11:15 PM 66.2 °F 60.8 °F 83% 30.25 in 10.0 mi East 12.7 mph - N/A   Clear
11:35 PM 68.0 °F 60.8 °F 78% 30.25 in 10.0 mi East 11.5 mph - N/A   Clear
11:55 PM 68.0 °F 60.8 °F 78% 30.25 in 10.0 mi East 11.5 mph - N/A   Clear